Weather in Slavskoe

Ukraine / Lviv District     48°50′55″N   23°26′50″E
temp.,
°C
wind,
m/s
gust,
m/s
humid.,
%
clouds,
%
prec.,
mm/h
press.,
hPa
HPBL,
m
27 september, mon
mon2700:00+9ene11955 0.0 102210
03:00+9ene11965 0.0 102212
06:00+8ene11975 0.0 102111
09:00+11ene119028 0.0 102095
12:00+17ne11647 0.0 1019770
15:00+19nne225830 0.0 10181227
18:00+15ne237612 0.0 1018345
21:00+10ene21965 0.0 101920
28 september, tue
tue2800:00+8ene21965 0.0 102017
03:00+7ene21965 0.0 102016
06:00+7ene11965 0.0 102011
09:00+10ne12865 0.0 1020111
12:00+15nne226524 0.0 1020669
15:00+15ne326150 0.0 1020775
18:00+12ne2370100 0.0 1021311
21:00+7ene2187100 0.0 102422
29 september, wed
wed2900:00+6ene218998 0.0 102517
03:00+5e118963 0.0 102513
06:00+6ene1188100 0.0 102514
09:00+9ene117697 0.0 102478
12:00+12ne116875 0.0 1024310
15:00+16nw125894 0.1 10231388
18:00+13ene117617 0.1 102321
21:00+8e11905 0.1 102510
30 september, thu
thu3000:00+8se119322 0.0 102615
03:00+10s228795 0.0 102542
06:00+8sse1193100 0.0 102614
09:00+10s1180100 0.0 102764
12:00+15wsw1155100 0.0 1026707
15:00+16wnw2253100 0.0 10251302
18:00+13nnw1274100 0.1 102668
21:00+9ne1193100 0.1 102812
1 october, fri
fri100:00+8ene1194100 0.0 102910
03:00+7e119098 0.0 102810
06:00+7e119149 0.0 102810
09:00+9ese118159 0.0 102861
12:00+16sw11536 0.0 1026999
15:00+16w1150100 0.0 10251600
18:00+13nne0172100 0.1 102518
21:00+9sse1189100 0.1 102610